This is the latest recevied weather packets stored in our database for station/object W3TMB. If no packets are shown the sender has not sent any weather packets the latest 10 day(s).
| Time | Temp. | Humidity | Pressure | Rain* | Wind** | Luminosity | Snow |
|---|---|---|---|---|---|---|---|
| 1778029732 | 17.22° C | 81% | 1005 hPa | 0 mm | - | 0 W/m² | - |
| 1778029430 | 17.22° C | 80% | 1005.2 hPa | 0 mm | - | 0 W/m² | - |
| 1778029127 | 17.78° C | 80% | 1004.8 hPa | 0 mm | - | 0 W/m² | - |
| 1778028824 | 17.78° C | 79% | 1004.7 hPa | 0 mm | - | 0 W/m² | - |
| 1778028519 | 17.78° C | 79% | 1004.9 hPa | 0 mm | - | 0 W/m² | - |
| 1778028218 | 18.33° C | 78% | 1005 hPa | 0 mm | - | 0 W/m² | - |
| 1778027913 | 18.33° C | 77% | 1005 hPa | 0 mm | - | 0 W/m² | - |
| 1778027610 | 18.33° C | 76% | 1004.9 hPa | 0 mm | - | 0 W/m² | - |
| 1778027306 | 18.89° C | 75% | 1005 hPa | 0 mm | - | 0 W/m² | - |
| 1778027003 | 18.89° C | 74% | 1004.9 hPa | 0 mm | - | 0 W/m² | - |
| 1778026699 | 18.89° C | 73% | 1004.5 hPa | 0 mm | - | 0 W/m² | - |
| 1778026396 | 19.44° C | 73% | 1004.7 hPa | 0 mm | - | 0 W/m² | - |
| 1778026093 | 20° C | 71% | 1004.5 hPa | 0 mm | - | 0 W/m² | - |
| 1778025791 | 20° C | 71% | 1004.3 hPa | 0 mm | - | 1 W/m² | - |
| 1778025487 | 20.56° C | 68% | 1004.3 hPa | 0 mm | - | 3 W/m² | - |
| 1778025185 | 20.56° C | 65% | 1004.3 hPa | 0 mm | - | 4 W/m² | - |
| 1778024881 | 21.11° C | 65% | 1004.4 hPa | 0 mm | - | 6 W/m² | - |
| 1778024579 | 21.11° C | 65% | 1004.6 hPa | 0 mm | - | 10 W/m² | - |
| 1778024276 | 21.67° C | 63% | 1004.4 hPa | 0 mm | - | 12 W/m² | - |
| 1778023974 | 21.67° C | 62% | 1004.4 hPa | 0 mm | - | 12 W/m² | - |
| 1778023670 | 21.67° C | 60% | 1004.4 hPa | 0 mm | - | 16 W/m² | - |
| 1778023368 | 22.22° C | 60% | 1004.2 hPa | 0 mm | - | 21 W/m² | - |
| 1778023064 | 22.22° C | 60% | 1004.6 hPa | 0 mm | - | 26 W/m² | - |
| 1778022763 | 22.22° C | 60% | 1004.6 hPa | 0 mm | - | 33 W/m² | - |
| 1778022461 | 22.22° C | 60% | 1004.4 hPa | 0 mm | - | 31 W/m² | - |
* Rain latest hour (hover to see other rain measurements)
** Current wind speed in m/s (hover to see current wind gust speed)